Location: Arthurs Seat
(13.1500°N, 59.6000°W)
Time: 19:34:07
(UTC+00:00)

SJ-6B - Pass Details

Date: 25 August 2019
Orbit: 510 x 582 km, 97.7° (Epoch: 22 September)

Event Time Altitude Azimuth Distance (km) Brightness Sun altitude
Exits shadow 23:52:43 28° 12° (NNE) 1,056 4.3 -24.1°
Drops below altitude 10° 23:54:44 10° 360° (N) 1,834 5.7 -24.6°
Sets 23:56:55 0° 356° (N) 2,741 6.7 -25.1°
